TimeHST,TemperatureF,Dew PointF,Humidity,Sea Level PressureIn,VisibilityMPH,Wind Direction,Wind SpeedMPH,Gust SpeedMPH,PrecipitationIn,Events,Conditions,WindDirDegrees,DateUTC
12:58 AM,74.3,63.7,69,30.11,10.0,East,10.4,-,N/A,,Partly Cloudy,90,2013-08-27 10:58:00
1:58 AM,74.7,63.1,67,30.10,10.0,East,10.4,-,N/A,,Scattered Clouds,80,2013-08-27 11:58:00
2:58 AM,74.1,63.0,68,30.09,10.0,ENE,9.2,-,N/A,,Partly Cloudy,70,2013-08-27 12:58:00
3:58 AM,73.6,62.6,68,30.10,10.0,East,12.7,-,N/A,,Partly Cloudy,80,2013-08-27 13:58:00
4:58 AM,73.8,62.2,67,30.10,10.0,ENE,12.7,-,N/A,,Scattered Clouds,60,2013-08-27 14:58:00
5:58 AM,73.0,62.4,69,30.11,10.0,East,8.1,-,N/A,,Clear,80,2013-08-27 15:58:00
6:58 AM,72.7,62.4,70,30.12,10.0,East,13.8,-,N/A,,Partly Cloudy,80,2013-08-27 16:58:00
7:31 AM,75.2,62.6,65,30.12,10.0,ENE,9.2,-,N/A,,Light Drizzle,70,2013-08-27 17:31:00
7:40 AM,75.2,62.6,65,30.13,10.0,East,8.1,-,N/A,,Clear,80,2013-08-27 17:40:00
7:58 AM,76.5,61.9,61,30.13,10.0,Variable,1.2,-,0.00,,Clear,0,2013-08-27 17:58:00
8:58 AM,78.8,61.5,55,30.13,10.0,East,10.4,19.6,N/A,,Partly Cloudy,80,2013-08-27 18:58:00
9:58 AM,79.7,63.5,58,30.14,10.0,NE,12.7,-,N/A,,Scattered Clouds,50,2013-08-27 19:58:00
10:58 AM,81.7,62.8,53,30.12,10.0,ENE,8.1,-,N/A,,Scattered Clouds,70,2013-08-27 20:58:00
11:58 AM,79.9,62.8,56,30.10,10.0,ENE,9.2,-,N/A,,Mostly Cloudy,60,2013-08-27 21:58:00
12:58 PM,80.8,61.9,52,30.08,10.0,Variable,4.6,-,N/A,,Mostly Cloudy,0,2013-08-27 22:58:00
1:58 PM,83.5,60.4,46,30.06,10.0,NE,10.4,-,N/A,,Clear,50,2013-08-27 23:58:00
2:42 PM,84.2,60.8,45,30.04,10.0,ENE,12.7,-,N/A,,Partly Cloudy,70,2013-08-28 00:42:00
2:58 PM,83.7,59.5,44,30.04,10.0,NE,12.7,-,N/A,,Clear,40,2013-08-28 00:58:00
3:10 PM,82.4,60.8,48,30.04,10.0,East,12.7,18.4,N/A,,Clear,80,2013-08-28 01:10:00
3:58 PM,82.0,61.2,49,30.04,10.0,ENE,13.8,19.6,N/A,,Clear,60,2013-08-28 01:58:00
4:58 PM,79.5,62.1,55,30.04,10.0,ENE,10.4,-,N/A,,Clear,60,2013-08-28 02:58:00
5:58 PM,77.7,63.5,61,30.04,10.0,NNE,6.9,-,N/A,,Partly Cloudy,20,2013-08-28 03:58:00
6:58 PM,75.6,64.2,68,30.05,10.0,Variable,6.9,-,N/A,,Clear,0,2013-08-28 04:58:00
7:58 PM,74.5,64.6,71,30.06,10.0,North,6.9,-,N/A,,Clear,350,2013-08-28 05:58:00
8:58 PM,73.8,64.4,72,30.07,10.0,NNE,9.2,-,N/A,,Clear,30,2013-08-28 06:58:00
9:58 PM,73.6,64.6,73,30.08,10.0,North,6.9,-,N/A,,Clear,360,2013-08-28 07:58:00
10:58 PM,72.1,65.5,79,30.09,10.0,NNW,5.8,-,N/A,,Partly Cloudy,340,2013-08-28 08:58:00
11:58 PM,72.0,65.7,80,30.07,10.0,North,3.5,-,N/A,,Clear,360,2013-08-28 09:58:00